Regional Weather Roundup
Issued by NWS

Home | Current Version | Previous Version | Graphics & Text | Print | Product List | Glossary On
Versions: 1 2 3 4 5 6 7 8 9 10 11 12 13 14 15 16 17 18 19 20 21 22 23 24 25 26 27 28 29 30 31 32 33 34 35 36 37 38 39 40 41 42 43 44 45 46 47 48 49 50
000
ASUS43 KLSX 031759
RWRMO

WEATHER SUMMARY FOR MISSOURI
NATIONAL WEATHER SERVICE SPRINGFIELD MO
100 PM CDT SUN MAY 03 2015

NOTE: "FAIR" INDICATES FEW OR NO CLOUDS BELOW 12,000 FEET WITH NO
       SIGNIFICANT WEATHER AND/OR OBSTRUCTIONS TO VISIBILITY.
       CURRENT SKY AND/OR WEATHER CONDITIONS ARE NOT AVAILABLE FOR
       CHILLICOTHE AND FARMINGTON.

MOZ001>031-035>038-043-044-053-054-031900-
...NORTHERN AND WESTERN MISSOURI...

CITY           SKY/WX    TMP DP  RH WIND       PRES   REMARKS
KANSAS CTY INT MOSUNNY   81  59  47 S23G30    29.84F
6HR MIN TEMP:  61; 6HR MAX TEMP:  81; 6HR PCP: TRACE;

KANSAS C DTWN  MOSUNNY   82  56  40 S21G30    29.84F
6HR MIN TEMP:  64; 6HR MAX TEMP:  83; 6HR PCP: TRACE;

LEE`S SUMMIT   PTSUNNY   76  55  48 S15G26    29.86F
6HR MIN TEMP:  62; 6HR MAX TEMP:  77;

ST JOSEPH      MOSUNNY   80  58  46 S17G25    29.81F
6HR MIN TEMP:  59; 6HR MAX TEMP:  80;

CHILLICOTHE      N/A     77  59  53 S9        29.87F
6HR MIN TEMP:  63; 6HR MAX TEMP:  77;

KIRKSVILLE     MOSUNNY   78  58  49 SW18G26   29.90F
6HR MIN TEMP:  59; 6HR MAX TEMP:  78;


$$
MOZ066>068-077>081-088>096-101>105-031900-
...SOUTHWEST MISSOURI...

CITY           SKY/WX    TMP DP  RH WIND       PRES   REMARKS
SPRINGFIELD    SUNNY     78  55  44 SW14      30.00F
6HR MIN TEMP:  57; 6HR MAX TEMP:  78;

JOPLIN         MOSUNNY   78  56  46 S20G31    29.96F
6HR MIN TEMP:  60; 6HR MAX TEMP:  78;


$$
MOZ032>034-039>042-045>050-055>058-069>072-031900-
...CENTRAL MISSOURI...

CITY           SKY/WX    TMP DP  RH WIND       PRES   REMARKS
COLUMBIA       MOSUNNY   80  58  46 S12       29.95F
6HR MIN TEMP:  58; 6HR MAX TEMP:  80;

JEFFERSON CITY MOSUNNY   80  55  42 S13G21    29.94F
6HR MIN TEMP:  60; 6HR MAX TEMP:  80;

ROLLA          SUNNY     79  55  43 S15       29.97F
6HR MIN TEMP:  59; 6HR MAX TEMP:  79;

SEDALIA        PTSUNNY   81  54  39 SW22G29   29.94F
6HR MIN TEMP:  62; 6HR MAX TEMP:  81;

OSAGE BEACH    SUNNY     82  54  36 SW17G23   29.96F

$$
MOZ051-052-059>065-031900-
...EAST CENTRAL MISSOURI...

CITY           SKY/WX    TMP DP  RH WIND       PRES   REMARKS
ST LOUIS INTL  PTSUNNY   82  51  34 SW17      29.99F
6HR MIN TEMP:  64; 6HR MAX TEMP:  82;

SPIRIT OF STL  MOSUNNY   81  50  33 S9        29.97F
6HR MIN TEMP:  60; 6HR MAX TEMP:  81;

ST CHARLES     SUNNY     81  53  37 S15G24    29.97F
6HR MIN TEMP:  58; 6HR MAX TEMP:  81;


$$
MOZ072>076-082>087-097>100-106>115-031900-
...SOUTH CENTRAL AND SOUTHEAST MISSOURI...

CITY           SKY/WX    TMP DP  RH WIND       PRES   REMARKS
CAPE GIRARDEAU MOSUNNY   79  46  31 SW14G21   30.06F
6HR MIN TEMP:  57; 6HR MAX TEMP:  79;

FARMINGTON     MOSUNNY   77  50  38 S12G22    30.08F
6HR MIN TEMP:  55; 6HR MAX TEMP:  77;

POPLAR BLUFF   PTSUNNY   77  46  33 SW14      30.05F
6HR MIN TEMP:  56; 6HR MAX TEMP:  77;

WEST PLAINS    SUNNY     76  52  43 S13       30.05F
6HR MIN TEMP:  59; 6HR MAX TEMP:  76;


$$


USA.gov is the U.S. government's official web portal to all federal, state and local government web resources and services.